Tracking 27107 objects as of 21-Mar-2023
HD Live streaming from Space Station
objects crossing your sky now

STARLINK-4045

Track STARLINK-4045 now!
10-day predictions
STARLINK-4045 is classified as:


NORAD ID: 53152
Int'l Code: 2022-083W
Perigee: 546.0 km
Apogee: 547.8 km
Inclination: 53.2 °
Period: 95.4 minutes
Semi major axis: 6917 km
RCS: Unknown
Launch date: July 17, 2022
Source: United States (US)
Launch site: AIR FORCE EASTERN TEST RANGE (AFETR)
Your satellite tracking list
Your tracking list is empty




NASA's NSSDC Master Catalog

Two Line Element Set (TLE):
1 53152U 22083W   23079.92817414  .00002268  00000-0  16054-3 0  9995
2 53152  53.2178 353.8030 0001327  94.3211 265.7932 15.08838966 38222
Source of the keplerian elements: AFSPC